This is the latest recevied weather packets stored in our database for station/object SQ5VCO-13. If no packets are shown the sender has not sent any weather packets the latest 10 day(s).
| Time | Temp. | Humidity | Pressure | Rain* | Wind** | Luminosity | Snow |
|---|---|---|---|---|---|---|---|
| 1778178904 | 11.67° C | 72% | 1013.5 hPa | 0 mm | - | - | - |
| 1778178737 | 11.67° C | 72% | 1013.3 hPa | 0 mm | - | - | - |
| 1778177404 | 12.22° C | 71% | 1012.8 hPa | 0 mm | - | - | - |
| 1778176336 | 12.78° C | 69% | 1012.8 hPa | 0 mm | - | - | - |
| 1778175903 | 12.78° C | 68% | 1012.4 hPa | 0 mm | - | - | - |
| 1778174534 | 12.78° C | 67% | 1012.3 hPa | 0 mm | - | - | - |
| 1778174104 | 13.33° C | 67% | 1012.4 hPa | 0 mm | - | - | - |
| 1778172904 | 13.33° C | 66% | 1012.2 hPa | 0 mm | - | - | - |
| 1778172004 | 13.89° C | 65% | 1012.2 hPa | 0 mm | - | - | - |
| 1778171104 | 14.44° C | 64% | 1012.4 hPa | 0 mm | - | - | - |
| 1778170504 | 14.44° C | 65% | 1012.3 hPa | 0 mm | - | - | - |
| 1778169303 | 14.44° C | 65% | 1012.3 hPa | 0 mm | - | - | - |
| 1778166904 | 14.44° C | 65% | 1012.2 hPa | 0 mm | - | - | - |
| 1778166304 | 15° C | 66% | 1011.8 hPa | 0 mm | - | - | - |
| 1778165103 | 14.44° C | 69% | 1011.9 hPa | 0 mm | - | - | - |
| 1778164803 | 14.44° C | 69% | 1011.9 hPa | 0 mm | - | - | - |
| 1778159104 | 13.89° C | 72% | 1011.8 hPa | 0 mm | - | - | - |
| 1778158806 | 13.89° C | 72% | 1011.7 hPa | 0 mm | - | - | - |
| 1778156704 | 13.33° C | 75% | 1011.4 hPa | 0 mm | - | - | - |
| 1778155804 | 13.33° C | 77% | 1011.3 hPa | 0 mm | - | - | - |
| 1778151904 | 12.22° C | 77% | 1011.1 hPa | 0 mm | - | - | - |
| 1778149804 | 12.78° C | 74% | 1010.6 hPa | 0 mm | - | - | - |
| 1778149036 | 13.33° C | 72% | 1010.5 hPa | 0 mm | - | - | - |
| 1778147404 | 14.44° C | 70% | 1010.2 hPa | 0 mm | - | - | - |
| 1778146804 | 14.44° C | 70% | 1010.3 hPa | 0 mm | - | - | - |
* Rain latest hour (hover to see other rain measurements)
** Current wind speed in m/s (hover to see current wind gust speed)